Regional Weather Roundup
Issued by NWS

Home | Current Version | Previous Version | Graphics & Text | Print | Product List | Glossary On
Versions: 1 2 3 4 5 6 7 8 9 10 11 12 13 14 15 16 17 18 19 20 21 22 23 24 25 26 27 28 29 30 31 32 33 34 35 36 37 38 39 40 41 42 43 44 45 46 47 48 49 50
362
ASUS43 KBIS 300102
RWRND

NORTH DAKOTA REGIONAL WEATHER ROUNDUP
NATIONAL WEATHER SERVICE BISMARCK ND
800 PM CDT FRI APR 29 2016

NOTE: "FAIR" INDICATES FEW OR NO CLOUDS BELOW 12,000 FEET WITH NO
SIGNIFICANT WEATHER AND/OR OBSTRUCTIONS TO VISIBILITY.


NDZ001>003-009>011-017-300200-
NORTHWEST NORTH DAKOTA

CITY           SKY/WX    TMP DP  RH WIND       PRES   REMARKS
WILLISTON      CLEAR     59  26  28 SE12      30.11S
MINOT          CLEAR     61  24  24 E9        30.14S
$$

NDZ018>021-031>035-040>046-300200-
SOUTHWEST NORTH DAKOTA

CITY           SKY/WX    TMP DP  RH WIND       PRES   REMARKS
BISMARCK       CLEAR     58  33  39 E10       30.09F
DICKINSON      CLEAR     53  30  41 E12       30.06S
GARRISON         N/A     58  28  32 E15       30.11S
HETTINGER ARPT MOCLDY    53  31  42 E10       30.06S
$$

NDZ004>008-012>016-024-026-027-054-300200-
NORTHEAST NORTH DAKOTA

CITY           SKY/WX    TMP DP  RH WIND       PRES   REMARKS
GRAND FORKS    PTCLDY    59  30  33 NE15      30.16S
DEVILS LAKE    CLEAR     57  31  37 E13       30.17S
$$

NDZ022-023-025-028>030-036>039-047>053-300200-
SOUTHEAST NORTH DAKOTA

CITY           SKY/WX    TMP DP  RH WIND       PRES   REMARKS
FARGO          PTCLDY    62  32  32 NE10      30.09F
JAMESTOWN      CLEAR     58  30  34 E12       30.10S
$$





USA.gov is the U.S. government's official web portal to all federal, state and local government web resources and services.